• In Czech Republic
  • List of Countries
  • For 7 days
  • Water Temperature
  • Satellite Maps
  • Weather Map
  • Weather Widgets
  • user-avatar
    Login

    Hourly Weather Veszprem

    Today, 16 December, Saturday

    Time Temperature Precipitation Wind Pressure Humidity
    00:00 +1°C° 0.7 mm 4 mps 727 mmHg 74%
    01:00 +1°C° 0 mm 4 mps 727 mmHg 74%
    02:00 +1°C° 0.3 mm 4 mps 727 mmHg 74%
    03:00 +1°C° 0.3 mm 4 mps 727 mmHg 75%
    04:00 +1°C° 0.3 mm 4 mps 727 mmHg 75%
    05:00 +1°C° 0.2 mm 4 mps 728 mmHg 76%
    06:00 0°C° 0.2 mm 4 mps 728 mmHg 77%
    07:00 +1°C° 0 mm 3 mps 729 mmHg 83%
    08:00 0°C° 0.1 mm 4 mps 729 mmHg 81%
    09:00 +1°C° 0.1 mm 4 mps 730 mmHg 78%
    10:00 +1°C° 0.1 mm 5 mps 731 mmHg 76%
    11:00 +2°C° 0 mm 5 mps 732 mmHg 74%
    12:00 +2°C° 0 mm 5 mps 732 mmHg 71%
    13:00 +3°C° 0 mm 5 mps 733 mmHg 69%
    14:00 +3°C° 0 mm 4 mps 733 mmHg 72%
    15:00 +2°C° 0 mm 3 mps 734 mmHg 75%
    16:00 +2°C° 0 mm 3 mps 734 mmHg 78%
    17:00 +2°C° 0 mm 2 mps 735 mmHg 79%
    18:00 +2°C° 0 mm 2 mps 735 mmHg 81%
    19:00 +1°C° 0 mm 2 mps 735 mmHg 83%
    20:00 +1°C° 0 mm 2 mps 736 mmHg 83%
    21:00 +1°C° 0 mm 2 mps 737 mmHg 84%
    22:00 +1°C° 0 mm 2 mps 737 mmHg 85%
    23:00 -1°C° 0 mm 2 mps 738 mmHg 86%

    Tomorrow, 17 December, Sunday

    Time Temperature Precipitation Wind Pressure Humidity
    00:00 -1°C° 0 mm 2 mps 738 mmHg 87%
    01:00 -1°C° 0 mm 2 mps 738 mmHg 88%
    02:00 -1°C° 0 mm 3 mps 739 mmHg 88%
    03:00 -1°C° 0 mm 3 mps 739 mmHg 87%
    04:00 -1°C° 0 mm 3 mps 739 mmHg 86%
    05:00 -1°C° 0 mm 3 mps 739 mmHg 86%
    06:00 -1°C° 0 mm 3 mps 740 mmHg 85%
    07:00 -1°C° 0 mm 3 mps 740 mmHg 85%
    08:00 -2°C° 0 mm 4 mps 740 mmHg 81%
    09:00 -1°C° 0 mm 5 mps 741 mmHg 78%
    10:00 0°C° 0 mm 5 mps 742 mmHg 74%
    11:00 0°C° 0 mm 5 mps 742 mmHg 72%
    12:00 +1°C° 0 mm 5 mps 742 mmHg 70%
    13:00 +1°C° 0 mm 5 mps 742 mmHg 67%
    14:00 0°C° 0 mm 4 mps 742 mmHg 71%
    15:00 +1°C° 0 mm 3 mps 742 mmHg 74%
    16:00 0°C° 0 mm 3 mps 742 mmHg 78%
    17:00 0°C° 0 mm 3 mps 742 mmHg 79%
    18:00 -1°C° 0 mm 3 mps 743 mmHg 80%
    19:00 -1°C° 0 mm 3 mps 743 mmHg 81%
    20:00 -1°C° 0 mm 3 mps 743 mmHg 81%
    21:00 -1°C° 0 mm 3 mps 744 mmHg 82%
    22:00 -1°C° 0 mm 3 mps 744 mmHg 83%
    23:00 -1°C° 0 mm 3 mps 744 mmHg 84%

    Day after tomorrow, 18 December, Monday

    Time Temperature Precipitation Wind Pressure Humidity
    00:00 -1°C° 0 mm 3 mps 744 mmHg 85%
    01:00 -3°C° 0 mm 4 mps 745 mmHg 87%
    02:00 -2°C° 0 mm 3 mps 745 mmHg 87%
    03:00 -2°C° 0 mm 3 mps 745 mmHg 87%
    04:00 -2°C° 0 mm 3 mps 745 mmHg 87%
    05:00 -2°C° 0 mm 3 mps 745 mmHg 86%
    06:00 -4°C° 0 mm 3 mps 745 mmHg 86%
    07:00 -4°C° 0 mm 3 mps 745 mmHg 85%
    08:00 -2°C° 0 mm 3 mps 745 mmHg 81%
    09:00 -2°C° 0 mm 4 mps 746 mmHg 77%
    10:00 -2°C° 0 mm 4 mps 746 mmHg 73%
    11:00 -1°C° 0 mm 4 mps 746 mmHg 69%
    12:00 -1°C° 0 mm 4 mps 745 mmHg 66%
    13:00 0°C° 0 mm 4 mps 745 mmHg 63%
    14:00 0°C° 0 mm 3 mps 745 mmHg 67%
    15:00 -1°C° 0 mm 2 mps 745 mmHg 71%
    16:00 -1°C° 0 mm 2 mps 745 mmHg 75%
    17:00 0°C° 0 mm 1 mps 746 mmHg 76%
    18:00 0°C° 0 mm 1 mps 746 mmHg 77%
    19:00 0°C° 0 mm 1 mps 747 mmHg 79%
    20:00 0°C° 0 mm 1 mps 747 mmHg 79%
    21:00 -1°C° 0 mm 1 mps 747 mmHg 79%
    22:00 -1°C° 0 mm 1 mps 748 mmHg 78%
    23:00 -1°C° 0 mm 1 mps 748 mmHg 78%

    19 December, Tuesday

    Time Temperature Precipitation Wind Pressure Humidity
    00:00 -1°C° 0 mm 1 mps 748 mmHg 78%
    01:00 -1°C° 0 mm 1 mps 749 mmHg 78%
    02:00 -1°C° 0 mm 1 mps 749 mmHg 79%
    03:00 -1°C° 0 mm 1 mps 749 mmHg 79%
    04:00 -1°C° 0 mm 1 mps 749 mmHg 79%
    05:00 -1°C° 0 mm 1 mps 749 mmHg 80%
    06:00 -1°C° 0 mm 1 mps 750 mmHg 80%
    07:00 -1°C° 0 mm 1 mps 750 mmHg 81%
    08:00 -1°C° 0 mm 1 mps 750 mmHg 77%
    09:00 0°C° 0 mm 1 mps 751 mmHg 74%
    10:00 -1°C° 0 mm 2 mps 751 mmHg 70%
    11:00 +1°C° 0 mm 2 mps 751 mmHg 68%
    12:00 +1°C° 0 mm 2 mps 751 mmHg 66%
    13:00 +2°C° 0 mm 2 mps 751 mmHg 64%
    14:00 +1°C° 0 mm 2 mps 751 mmHg 70%
    15:00 -1°C° 0 mm 2 mps 751 mmHg 75%
    16:00 -1°C° 0 mm 2 mps 751 mmHg 80%
    17:00 -2°C° 0 mm 2 mps 751 mmHg 82%
    18:00 -2°C° 0 mm 2 mps 751 mmHg 84%
    19:00 -2°C° 0 mm 2 mps 751 mmHg 86%
    20:00 -2°C° 0.2 mm 2 mps 751 mmHg 87%
    21:00 -1°C° 0.2 mm 2 mps 751 mmHg 88%
    22:00 -1°C° 0.2 mm 2 mps 751 mmHg 89%
    23:00 -1°C° 0.1 mm 2 mps 751 mmHg 89%

    20 December, Wednesday

    Time Temperature Precipitation Wind Pressure Humidity
    00:00 -1°C° 0.1 mm 3 mps 751 mmHg 88%
    01:00 -1°C° 0.1 mm 3 mps 750 mmHg 88%
    02:00 -1°C° 0.1 mm 3 mps 750 mmHg 88%
    03:00 -1°C° 0.1 mm 3 mps 749 mmHg 87%
    04:00 -1°C° 0.1 mm 3 mps 749 mmHg 87%
    05:00 -1°C° 0.7 mm 3 mps 748 mmHg 87%
    06:00 -1°C° 0.7 mm 4 mps 748 mmHg 88%
    07:00 -1°C° 0.7 mm 4 mps 748 mmHg 88%
    08:00 -1°C° 1 mm 4 mps 748 mmHg 89%
    09:00 -1°C° 1 mm 4 mps 748 mmHg 90%
    10:00 -1°C° 1 mm 4 mps 747 mmHg 91%
    11:00 -1°C° 0.7 mm 4 mps 747 mmHg 92%
    12:00 0°C° 0.7 mm 4 mps 747 mmHg 92%
    13:00 0°C° 0.7 mm 5 mps 746 mmHg 93%
    14:00 0°C° 0.5 mm 4 mps 746 mmHg 93%
    15:00 0°C° 0.5 mm 4 mps 746 mmHg 94%
    16:00 0°C° 0.5 mm 4 mps 746 mmHg 94%
    17:00 0°C° 0.6 mm 4 mps 747 mmHg 95%
    18:00 0°C° 0.6 mm 4 mps 747 mmHg 95%
    19:00 +1°C° 0.6 mm 3 mps 747 mmHg 96%
    20:00 +1°C° 0.6 mm 3 mps 748 mmHg 96%
    21:00 +1°C° 0.6 mm 3 mps 748 mmHg 96%
    22:00 +1°C° 0.6 mm 3 mps 748 mmHg 97%
    23:00 +2°C° 0.4 mm 2 mps 748 mmHg 97%

    21 December, Thursday

    Time Temperature Precipitation Wind Pressure Humidity
    00:00 +2°C° 0.4 mm 2 mps 749 mmHg 97%
    01:00 +2°C° 0.4 mm 2 mps 749 mmHg 97%
    02:00 +2°C° 0.5 mm 2 mps 749 mmHg 96%
    03:00 +2°C° 0.5 mm 2 mps 749 mmHg 96%
    04:00 +2°C° 0.5 mm 2 mps 749 mmHg 96%
    05:00 +2°C° 0.4 mm 3 mps 749 mmHg 95%
    06:00 +2°C° 0.4 mm 3 mps 749 mmHg 95%
    07:00 +2°C° 0.4 mm 3 mps 750 mmHg 95%
    08:00 +3°C° 0.1 mm 3 mps 750 mmHg 94%
    09:00 +3°C° 0.1 mm 3 mps 750 mmHg 94%
    10:00 +4°C° 0.1 mm 3 mps 750 mmHg 94%
    11:00 +4°C° 0.3 mm 4 mps 750 mmHg 94%
    12:00 +4°C° 0.3 mm 4 mps 749 mmHg 94%
    13:00 +4°C° 0.3 mm 4 mps 749 mmHg 95%
    14:00 +4°C° 0.3 mm 4 mps 749 mmHg 94%
    15:00 +4°C° 0.3 mm 4 mps 749 mmHg 94%
    16:00 +4°C° 0.3 mm 4 mps 749 mmHg 93%
    17:00 +4°C° 0.2 mm 4 mps 749 mmHg 93%
    18:00 +4°C° 0.2 mm 4 mps 749 mmHg 92%
    19:00 +4°C° 0.2 mm 4 mps 749 mmHg 92%
    20:00 +5°C° 0.1 mm 4 mps 749 mmHg 91%
    21:00 +5°C° 0.1 mm 4 mps 748 mmHg 90%
    22:00 +5°C° 0.1 mm 4 mps 748 mmHg 89%
    23:00 +5°C° 0 mm 4 mps 748 mmHg 88%
    Show more